Weather History for Sella Ness, United Kingdom

Change the Weather History Date:

Friday, August 23, 2013

  Actual Average Record
Temperature  
Mean Temperature 58 °F -  
Max Temperature 64 °F 56 °F 68 °F (2002)
Min Temperature 53 °F 50 °F 41 °F (2004)
Degree Days  
Heating Degree Days 6    
Growing Degree Days 8 (Base 50)    
Moisture  
Dew Point 56 °F    
Average Humidity 91    
Maximum Humidity 100    
Minimum Humidity 82    
Precipitation  
Precipitation 0.00 in - - ()
Sea Level Pressure  
Sea Level Pressure 29.99 in    
Wind  
Wind Speed 17 mph ()    
Max Wind Speed 28 mph    
Max Gust Speed 38 mph    
Visibility 5.7 miles    
Events      
Averages and records for this station are not official NWS values.
T = Trace of Precipitation, MM = Missing Value Source: Averaged Metar Reports

Daily Weather History Graph

Daily Weather History Graph

Search for Another Location

Airport:

Trip Planner

Search our weather history database for the weather conditions in past years. The results will help you decide how hot, cold, wet, or windy it might be!

Date:

Astronomy

Aug. 23, 2013 Rise Set
Actual Time 5:37 AM BST 8:36 PM BST
Civil Twilight 4:48 AM BST 9:24 PM BST
Nautical Twilight 3:40 AM BST 10:31 PM BST
Astronomical Twilight 1:28 AM BST 12:27 AM BST
Moon 8:41 PM BST (8/23) 9:15 AM BST (8/23)
Length of Visible Light 16h 36m
Length of Day
14h 59m
Waning Gibbous, 93% of the Moon is Illuminated
Aug 23
Waning Gibbous
Aug 28
Last Quarter
Sep 5
New
Sep 12
First Quarter
Sep 19
Full

Hourly Weather History & Observations

Time (BST) Temp. Dew Point Humidity Pressure Visibility Wind Dir Wind Speed Gust Speed Precip Events Conditions
12:20 AM 53.6 °F 51.8 °F 94% 30.15 in 6.2 mi ESE 8.1 mph - N/A   Mostly Cloudy
12:50 AM 53.6 °F 51.8 °F 94% 30.12 in 6.2 mi East 9.2 mph - N/A   Mostly Cloudy
1:20 AM 53.6 °F 53.6 °F 100% 30.12 in 6.2 mi ESE 10.4 mph - N/A   Mostly Cloudy
1:50 AM 55.4 °F 53.6 °F 94% 30.12 in 6.2 mi ESE 10.4 mph - N/A   Mostly Cloudy
2:20 AM 55.4 °F 53.6 °F 94% 30.12 in 6.2 mi ESE 12.7 mph - N/A   Mostly Cloudy
2:50 AM 55.4 °F 53.6 °F 94% 30.09 in 6.2 mi ESE 12.7 mph - N/A   Mostly Cloudy
3:20 AM 55.4 °F 53.6 °F 94% 30.09 in 6.2 mi SE 15.0 mph - N/A   Mostly Cloudy
3:50 AM 55.4 °F 53.6 °F 94% 30.06 in 6.2 mi SE 16.1 mph - N/A   Mostly Cloudy
4:20 AM 55.4 °F 53.6 °F 94% 30.06 in 6.2 mi SE 18.4 mph - N/A   Mostly Cloudy
4:50 AM 55.4 °F 53.6 °F 94% 30.06 in 6.2 mi SE 17.3 mph - N/A   Mostly Cloudy
5:20 AM 57.2 °F 53.6 °F 88% 30.04 in 6.2 mi SE 17.3 mph - N/A   Mostly Cloudy
5:50 AM 57.2 °F 53.6 °F 88% 30.04 in 6.2 mi SE 16.1 mph - N/A   Mostly Cloudy
6:20 AM 57.2 °F 55.4 °F 94% 30.04 in 6.2 mi SE 17.3 mph - N/A   Mostly Cloudy
6:50 AM 57.2 °F 55.4 °F 94% 30.04 in 6.2 mi SE 20.7 mph - N/A   Mostly Cloudy
7:20 AM 57.2 °F 55.4 °F 94% 30.01 in 6.2 mi SE 19.6 mph - N/A   Mostly Cloudy
7:50 AM 57.2 °F 55.4 °F 94% 30.01 in 6.2 mi SE 21.9 mph - N/A   Mostly Cloudy
8:20 AM 59.0 °F 55.4 °F 88% 30.01 in 6.2 mi SE 19.6 mph - N/A   Mostly Cloudy
8:50 AM 59.0 °F 55.4 °F 88% 30.01 in 6.2 mi SE 18.4 mph - N/A   Mostly Cloudy
9:20 AM 59.0 °F 55.4 °F 88% 29.98 in 6.2 mi SE 18.4 mph - N/A   Mostly Cloudy
9:50 AM 59.0 °F 57.2 °F 94% 30.01 in 6.2 mi SE 20.7 mph - N/A   Mostly Cloudy
10:20 AM 59.0 °F 57.2 °F 94% 29.98 in 6.2 mi SE 23.0 mph - N/A   Mostly Cloudy
10:50 AM 60.8 °F 57.2 °F 88% 29.98 in 6.2 mi SE 23.0 mph - N/A   Mostly Cloudy
11:20 AM 60.8 °F 57.2 °F 88% 29.98 in 6.2 mi SE 24.2 mph 35.7 mph N/A   Scattered Clouds
11:50 AM 60.8 °F 57.2 °F 88% 29.98 in 6.2 mi SE 25.3 mph - N/A   Scattered Clouds
12:20 PM 62.6 °F 57.2 °F 82% 29.95 in 6.2 mi SSE 24.2 mph - N/A   Scattered Clouds
12:50 PM 62.6 °F 57.2 °F 82% 29.95 in 6.2 mi SSE 25.3 mph - N/A   Scattered Clouds
1:20 PM 62.6 °F 57.2 °F 82% 29.95 in 6.2 mi SSE 23.0 mph - N/A   Scattered Clouds
1:50 PM 64.4 °F 59.0 °F 83% 29.95 in 6.2 mi SSE 25.3 mph - N/A   Scattered Clouds
2:20 PM 62.6 °F 59.0 °F 88% 29.95 in 6.2 mi SSE 26.5 mph - N/A   Scattered Clouds
2:50 PM 62.6 °F 57.2 °F 82% 29.95 in 6.2 mi SSE 27.6 mph - N/A   Scattered Clouds
3:20 PM 64.4 °F 59.0 °F 83% 29.95 in 6.2 mi SSE 26.5 mph - N/A   Scattered Clouds
3:50 PM 60.8 °F 57.2 °F 88% 29.92 in 6.2 mi SSE 26.5 mph 38.0 mph N/A   Scattered Clouds
4:20 PM 62.6 °F 59.0 °F 88% 29.92 in 6.2 mi SSE 26.5 mph - N/A   Mostly Cloudy
4:50 PM 59.0 °F 57.2 °F 94% 29.92 in 5.6 mi SSE 27.6 mph - N/A   Mostly Cloudy
5:20 PM 60.8 °F 59.0 °F 94% 29.89 in 3.1 mi SSE 27.6 mph - N/A   Mostly Cloudy
5:50 PM 60.8 °F 59.0 °F 94% 29.92 in 3.1 mi SSE 26.5 mph - N/A   Mostly Cloudy
6:20 PM 60.8 °F 59.0 °F 94% 29.92 in - SSE 26.5 mph - N/A   Haze
6:50 PM 59.0 °F 57.2 °F 94% 29.92 in - SSE 26.5 mph - N/A   Haze
7:20 PM 60.8 °F 59.0 °F 94% 29.92 in - SSE 24.2 mph - N/A   Haze
7:50 PM 60.8 °F 59.0 °F 94% 29.92 in - SSE 24.2 mph - N/A   Haze
8:20 PM 60.8 °F 59.0 °F 94% 29.92 in - SSE 23.0 mph - N/A   Haze
8:50 PM 59.0 °F 57.2 °F 94% 29.92 in - SSE 23.0 mph - N/A   Haze
9:20 PM 59.0 °F 57.2 °F 94% 29.92 in 3.1 mi SSE 24.2 mph - N/A   Haze
9:50 PM 59.0 °F 57.2 °F 94% 29.92 in 3.7 mi South 23.0 mph - N/A   Unknown
10:20 PM 60.8 °F 57.2 °F 88% 29.92 in 3.7 mi SSE 21.9 mph - N/A   Unknown
10:50 PM 59.0 °F 57.2 °F 94% 29.92 in 3.7 mi SSE 23.0 mph - N/A   Unknown
11:20 PM 59.0 °F 57.2 °F 94% 29.92 in 3.1 mi SSE 20.7 mph - N/A   Haze
11:50 PM 60.8 °F 57.2 °F 88% 29.92 in 3.7 mi SSE 20.7 mph - N/A   Drizzle